Huntington, WV

6:50 AM EST on December 11, 2019 (GMT -0500)
Tri-State / Ferguson

Weather History for KHTS - October, 2019

Change the Weather History Date:

Friday, October 11, 2019

  Actual Average Record
Temperature  
Mean Temperature 68 °F 58 °F  
Max Temperature 81 °F 70 °F 90 °F (1949)
Min Temperature 54 °F 46 °F 24 °F (1906)
Degree Days  
Heating Degree Days 0 8  
Month to date heating degree days 12 71  
Since 1 July heating degree days 12 129  
Cooling Degree Days 3 1  
Month to date cooling degree days 65 13  
Year to date cooling degree days 1510 1124  
Growing Degree Days 18 (Base 50)    
Moisture  
Dew Point 57 °F    
Average Humidity 73    
Maximum Humidity 100    
Minimum Humidity 45    
Precipitation  
Precipitation 0.00 in 0.09 in 0.79 in (2006)
Month to date precipitation 2.78 0.97  
Year to date precipitation 37.25 34.00  
Snow  
Snow 0.00 in 0.00 in T in (1906)
Month to date snowfall 0.0 0.0  
Since 1 September snowfall 0.0 0.0  
Snow Depth 0.00 in    
Sea Level Pressure  
Sea Level Pressure 30.03 in    
Wind  
Wind Speed 4 mph (SE)    
Max Wind Speed 12 mph    
Max Gust Speed 15 mph    
Visibility 10 miles    
Events      
T = Trace of Precipitation, MM = Missing Value Source: NWS Daily Summary

Daily Weather History Graph

Daily Weather History Graph

Search for Another Location

Airport or City:

Astronomy

Oct. 11, 2019 Rise Set
Actual Time 7:35 AM EDT 6:58 PM EDT
Civil Twilight 7:08 AM EDT 7:24 PM EDT
Nautical Twilight 6:37 AM EDT 7:55 PM EDT
Astronomical Twilight 6:07 AM EDT 8:26 PM EDT
Moon 6:24 PM EDT 5:17 AM EDT
Length of Visible Light 12h 16m
Length of Day
11h 23m
Waxing Gibbous, 96% of the Moon is Illuminated
Oct 11
Waxing Gibbous
Oct 13
Full
Oct 21
Last Quarter
Oct 27
New
Nov 4
First Quarter

Hourly Weather History & Observations

Time (EDT) Temp. Heat Index Dew Point Humidity Pressure Visibility Wind Dir Wind Speed Gust Speed Precip Events Conditions
12:51 AM 59.0 °F - 57.0 °F 93% 30.08 in 10.0 mi Calm Calm - N/A   Clear
1:51 AM 57.9 °F - 55.9 °F 93% 30.07 in 10.0 mi East 3.5 mph - N/A   Clear
2:51 AM 57.0 °F - 55.0 °F 93% 30.06 in 10.0 mi Calm Calm - N/A   Clear
3:51 AM 57.0 °F - 55.0 °F 93% 30.06 in 10.0 mi Calm Calm - N/A   Clear
4:51 AM 55.0 °F - 54.0 °F 96% 30.06 in 9.0 mi East 4.6 mph - N/A   Clear
5:51 AM 55.9 °F - 54.0 °F 93% 30.07 in 10.0 mi Calm Calm - N/A   Clear
6:51 AM 54.0 °F - 53.1 °F 97% 30.08 in 5.0 mi East 3.5 mph - N/A   Partly Cloudy
7:51 AM 55.9 °F - 54.0 °F 93% 30.09 in 10.0 mi Calm Calm - N/A   Partly Cloudy
8:51 AM 59.0 °F - 55.9 °F 90% 30.10 in 10.0 mi Calm Calm - N/A   Clear
9:51 AM 64.0 °F - 57.9 °F 80% 30.10 in 10.0 mi SSW 4.6 mph - N/A   Clear
10:51 AM 71.1 °F - 57.9 °F 63% 30.10 in 10.0 mi SSW 8.1 mph - N/A   Clear
11:51 AM 73.9 °F - 57.9 °F 57% 30.09 in 10.0 mi Variable 5.8 mph - N/A   Clear
12:51 PM 78.1 °F - 57.9 °F 50% 30.07 in 10.0 mi Variable 5.8 mph - N/A   Clear
1:51 PM 78.1 °F - 57.9 °F 50% 30.04 in 10.0 mi SSW 5.8 mph - N/A   Overcast
2:51 PM 80.1 °F 80.6 °F 57.9 °F 47% 30.01 in 10.0 mi South 5.8 mph - N/A   Overcast
3:51 PM 80.1 °F 80.6 °F 57.9 °F 47% 30.00 in 10.0 mi Variable 3.5 mph - N/A   Mostly Cloudy
4:51 PM 79.0 °F - 57.9 °F 48% 29.98 in 10.0 mi SSE 3.5 mph - N/A   Overcast
5:51 PM 77.0 °F - 57.9 °F 52% 29.97 in 10.0 mi SE 3.5 mph - N/A   Overcast
6:51 PM 75.0 °F - 57.9 °F 55% 29.97 in 10.0 mi ESE 3.5 mph - N/A   Overcast
7:51 PM 73.0 °F - 62.1 °F 68% 29.97 in 10.0 mi East 4.6 mph - N/A   Overcast
8:51 PM 72.0 °F - 61.0 °F 68% 29.96 in 10.0 mi ESE 4.6 mph - N/A   Overcast
9:51 PM 69.1 °F - 61.0 °F 75% 29.94 in 10.0 mi ESE 4.6 mph - N/A   Mostly Cloudy
10:51 PM 69.1 °F - 61.0 °F 75% 29.93 in 10.0 mi Calm Calm - N/A   Overcast
11:51 PM 69.1 °F - 60.1 °F 73% 29.93 in 10.0 mi SW 4.6 mph - N/A   Overcast